TimeEST,TemperatureF,Dew PointF,Humidity,Sea Level PressureIn,VisibilityMPH,Wind Direction,Wind SpeedMPH,Gust SpeedMPH,PrecipitationIn,Events,Conditions,WindDirDegrees,DateUTC
12:15 AM,32.0,32.0,100,30.27,10.0,Calm,Calm,-,N/A,,Clear,0,2012-12-23 05:15:00
12:35 AM,32.0,32.0,100,30.27,10.0,Calm,Calm,-,N/A,,Clear,0,2012-12-23 05:35:00
12:55 AM,32.0,32.0,100,30.26,10.0,Calm,Calm,-,N/A,,Clear,0,2012-12-23 05:55:00
1:15 AM,32.0,32.0,100,30.26,10.0,Calm,Calm,-,N/A,,Clear,0,2012-12-23 06:15:00
1:35 AM,32.0,32.0,100,30.26,10.0,Calm,Calm,-,N/A,,Clear,0,2012-12-23 06:35:00
1:55 AM,32.0,32.0,100,30.26,10.0,Calm,Calm,-,N/A,,Clear,0,2012-12-23 06:55:00
2:15 AM,32.0,32.0,100,30.26,10.0,Calm,Calm,-,N/A,,Clear,0,2012-12-23 07:15:00
2:35 AM,30.2,30.2,100,30.25,10.0,Calm,Calm,-,N/A,,Clear,0,2012-12-23 07:35:00
2:55 AM,30.2,30.2,100,30.25,7.0,Calm,Calm,-,N/A,,Clear,0,2012-12-23 07:55:00
3:15 AM,30.2,30.2,100,30.25,7.0,Calm,Calm,-,N/A,,Clear,0,2012-12-23 08:15:00
3:35 AM,30.2,30.2,100,30.25,7.0,Calm,Calm,-,N/A,,Clear,0,2012-12-23 08:35:00
3:55 AM,30.2,30.2,100,30.25,7.0,Calm,Calm,-,N/A,,Clear,0,2012-12-23 08:55:00
4:15 AM,30.2,30.2,100,30.25,10.0,Calm,Calm,-,N/A,,Clear,0,2012-12-23 09:15:00
4:35 AM,30.2,30.2,100,30.25,10.0,Calm,Calm,-,N/A,,Clear,0,2012-12-23 09:35:00
4:55 AM,30.2,30.2,100,30.24,10.0,Calm,Calm,-,N/A,,Clear,0,2012-12-23 09:55:00
5:15 AM,28.4,28.4,100,30.24,10.0,Calm,Calm,-,N/A,,Clear,0,2012-12-23 10:15:00
5:35 AM,28.4,28.4,100,30.25,10.0,Calm,Calm,-,N/A,,Clear,0,2012-12-23 10:35:00
5:55 AM,30.2,30.2,100,30.24,10.0,Calm,Calm,-,N/A,,Clear,0,2012-12-23 10:55:00
6:15 AM,30.2,30.2,100,30.26,10.0,Calm,Calm,-,N/A,,Clear,0,2012-12-23 11:15:00
6:35 AM,30.2,30.2,100,30.27,10.0,Calm,Calm,-,N/A,,Clear,0,2012-12-23 11:35:00
6:55 AM,30.2,30.2,100,30.27,10.0,Calm,Calm,-,N/A,,Scattered Clouds,0,2012-12-23 11:55:00
7:15 AM,30.2,30.2,100,30.27,10.0,Calm,Calm,-,N/A,,Mostly Cloudy,0,2012-12-23 12:15:00
7:35 AM,30.2,30.2,100,30.26,10.0,Calm,Calm,-,N/A,,Scattered Clouds,0,2012-12-23 12:35:00
7:55 AM,30.2,30.2,100,30.27,10.0,Calm,Calm,-,N/A,,Clear,0,2012-12-23 12:55:00
8:15 AM,32.0,32.0,100,30.28,10.0,Calm,Calm,-,N/A,,Clear,0,2012-12-23 13:15:00
8:35 AM,33.8,33.8,100,30.28,10.0,Calm,Calm,-,N/A,,Clear,0,2012-12-23 13:35:00
8:55 AM,37.4,35.6,93,30.29,10.0,Calm,Calm,-,N/A,,Clear,0,2012-12-23 13:55:00
9:15 AM,42.8,39.2,87,30.29,10.0,Calm,Calm,-,N/A,,Clear,0,2012-12-23 14:15:00
9:35 AM,44.6,37.4,76,30.30,10.0,Calm,Calm,-,N/A,,Clear,0,2012-12-23 14:35:00
9:55 AM,46.4,35.6,66,30.29,10.0,Calm,Calm,-,N/A,,Clear,0,2012-12-23 14:55:00
10:15 AM,51.8,33.8,50,30.29,10.0,Calm,Calm,-,N/A,,Clear,0,2012-12-23 15:15:00
10:35 AM,53.6,30.2,41,30.29,10.0,NNE,3.5,-,N/A,,Clear,30,2012-12-23 15:35:00
10:55 AM,55.4,28.4,36,30.28,10.0,NE,3.5,-,N/A,,Clear,50,2012-12-23 15:55:00
11:15 AM,57.2,28.4,33,30.28,10.0,Calm,Calm,-,N/A,,Clear,0,2012-12-23 16:15:00
11:35 AM,59.0,28.4,31,30.27,10.0,Calm,Calm,-,N/A,,Clear,0,2012-12-23 16:35:00
11:55 AM,59.0,28.4,31,30.26,10.0,Calm,Calm,-,N/A,,Clear,0,2012-12-23 16:55:00
12:15 PM,59.0,28.4,31,30.25,10.0,Calm,Calm,-,N/A,,Clear,0,2012-12-23 17:15:00
12:35 PM,60.8,26.6,27,30.22,10.0,Calm,Calm,-,N/A,,Clear,0,2012-12-23 17:35:00
1:15 PM,60.8,28.4,29,30.22,10.0,Calm,Calm,-,N/A,,Clear,0,2012-12-23 18:15:00
1:35 PM,62.6,28.4,27,30.21,10.0,Calm,Calm,-,N/A,,Clear,0,2012-12-23 18:35:00
1:55 PM,62.6,28.4,27,30.21,10.0,Calm,Calm,-,N/A,,Clear,0,2012-12-23 18:55:00
2:15 PM,64.4,28.4,26,30.20,10.0,Calm,Calm,-,N/A,,Clear,0,2012-12-23 19:15:00
2:35 PM,64.4,28.4,26,30.20,10.0,SSW,3.5,-,N/A,,Clear,200,2012-12-23 19:35:00
2:55 PM,64.4,28.4,26,30.19,10.0,Calm,Calm,-,N/A,,Clear,0,2012-12-23 19:55:00
3:15 PM,64.4,28.4,26,30.19,10.0,Calm,Calm,-,N/A,,Clear,0,2012-12-23 20:15:00
3:35 PM,64.4,30.2,28,30.19,10.0,Calm,Calm,-,N/A,,Clear,0,2012-12-23 20:35:00
3:55 PM,64.4,32.0,30,30.19,10.0,Calm,Calm,-,N/A,,Clear,0,2012-12-23 20:55:00
4:15 PM,62.6,32.0,32,30.19,10.0,Calm,Calm,-,N/A,,Clear,0,2012-12-23 21:15:00
4:35 PM,60.8,35.6,39,30.19,10.0,Calm,Calm,-,N/A,,Clear,0,2012-12-23 21:35:00
4:55 PM,60.8,35.6,39,30.19,10.0,Calm,Calm,-,N/A,,Clear,0,2012-12-23 21:55:00
5:15 PM,59.0,35.6,42,30.19,10.0,Calm,Calm,-,N/A,,Clear,0,2012-12-23 22:15:00
5:35 PM,55.4,37.4,51,30.19,10.0,Calm,Calm,-,N/A,,Clear,0,2012-12-23 22:35:00
5:55 PM,53.6,37.4,54,30.19,10.0,Calm,Calm,-,N/A,,Clear,0,2012-12-23 22:55:00
6:15 PM,51.8,37.4,58,30.19,10.0,Calm,Calm,-,N/A,,Clear,0,2012-12-23 23:15:00
6:35 PM,50.0,37.4,62,30.19,10.0,Calm,Calm,-,N/A,,Clear,0,2012-12-23 23:35:00
6:55 PM,50.0,37.4,62,30.19,10.0,Calm,Calm,-,N/A,,Clear,0,2012-12-23 23:55:00
7:15 PM,50.0,37.4,62,30.19,10.0,Calm,Calm,-,N/A,,Clear,0,2012-12-24 00:15:00
7:35 PM,50.0,37.4,62,30.19,10.0,Calm,Calm,-,N/A,,Clear,0,2012-12-24 00:35:00
7:55 PM,48.2,39.2,71,30.19,10.0,Calm,Calm,-,N/A,,Clear,0,2012-12-24 00:55:00
8:15 PM,50.0,41.0,71,30.19,10.0,Calm,Calm,-,N/A,,Clear,0,2012-12-24 01:15:00
8:35 PM,48.2,39.2,71,30.19,10.0,Calm,Calm,-,N/A,,Clear,0,2012-12-24 01:35:00
8:55 PM,48.2,39.2,71,30.19,10.0,Calm,Calm,-,N/A,,Clear,0,2012-12-24 01:55:00
9:15 PM,48.2,39.2,71,30.18,10.0,Calm,Calm,-,N/A,,Scattered Clouds,0,2012-12-24 02:15:00
9:55 PM,48.2,41.0,76,30.19,10.0,Calm,Calm,-,N/A,,Scattered Clouds,0,2012-12-24 02:55:00
10:15 PM,48.2,41.0,76,30.18,10.0,Calm,Calm,-,N/A,,Scattered Clouds,0,2012-12-24 03:15:00
10:35 PM,46.4,41.0,81,30.19,10.0,Calm,Calm,-,N/A,,Scattered Clouds,0,2012-12-24 03:35:00
10:55 PM,46.4,41.0,81,30.19,10.0,Calm,Calm,-,N/A,,Clear,0,2012-12-24 03:55:00
11:15 PM,46.4,41.0,81,30.18,10.0,Calm,Calm,-,N/A,,Clear,0,2012-12-24 04:15:00
11:35 PM,46.4,41.0,81,30.17,10.0,Calm,Calm,-,N/A,,Clear,0,2012-12-24 04:35:00
11:55 PM,46.4,41.0,81,30.17,10.0,Calm,Calm,-,N/A,,Clear,0,2012-12-24 04:55:00